Location: Newark
(22.3060°N, 114.2134°E)
Time: 03:54:24
(UTC+00:00)

Explorer 11/Cluster Stage 4 - Pass Details

Date: 05 August 2021
Orbit: 467 x 1256 km, 28.8° (Epoch: 21 September)

Event Time Altitude Azimuth Distance (km) Brightness Sun altitude
Rises 05:56:31 0° 284° (WNW) 4,185 10.6 68.8°
Reaches altitude 10° 05:59:41 10° 278° (W) 3,182 10.2 68.0°
Maximum altitude 06:07:09 43° 210° (SSW) 1,546 9.1 66.3°
Drops below altitude 10° 06:13:39 10° 141° (SE) 2,771 9.4 64.8°
Sets 06:16:15 0° 135° (SE) 3,602 9.8 64.2°
